CZ-4B R/B - Orbit

View from above orbital plane
View from above orbital plane
View from above satellite
View from above satellite

Ground track
Ground track

The orbit data is extracted from the following two-line orbital elements,

1 32959U 08026B   13139.50667392  .00000154  00000-0  61268-4 0  4878
2 32959 098.9392 298.4188 0071457 050.9743 340.6142 14.41152107261850
Epoch (UTC): 19 May 2013 12:09:36
Eccentricity: 0.0071457
inclination: 98.9392°
perigee height: 704 km
apogee height: 805 km
right ascension of ascending node: 298.4188°
argument of perigee: 50.9743°
revolutions per day: 14.41152107
mean anomaly at epoch: 340.6142°
orbit number at epoch: 26185

The dashed part of the orbit path shows where the satellite is in the earth's shadow,  

Developed and maintained by Chris Peat, Heavens-Above GmbH. Please read the updated FAQ before sending e-mail. Imprint. DLR